Date String (YYYY-MM-DD hh:mm:ss) UTC,Instrument flags,Ambient pressure (hPa),Sample flow (lpm),Bypass flow (lpm),Sample temperature (°C),Ambient temperature (°C),ASC tube jacket temperature (°C),LED temperature (°C),Box temperature (°C),Sample RH (%),Span deviation,Mass concentration (μg/m³),Mass concentration (μg/m³),Mass concentration (μg/m³)
DateTimeUTC,F1_M11,P_M11,Q1_M11,Q2_M11,T1_M11,T2_M11,T3_M11,T4_M11,T5_M11,U1_M11,ZSPAN_M11,X0_M11,X2_M11,X1_M11
2022-02-20 04:00:00,,0819.2,5.01,0.00,22.8,21.9,00.0,32.0,24.6,07.8,0000.0,0003.66,0000.73,0000.52
2022-02-20 04:01:00,,0819.1,4.99,0.00,22.8,21.8,00.0,31.9,24.6,07.7,0000.0,0004.67,0000.76,0000.52
2022-02-20 04:02:00,,0819.1,5.00,0.00,22.8,21.8,00.0,31.9,24.6,07.6,0000.0,0004.83,0000.81,0000.53
2022-02-20 04:03:00,,0819.1,5.00,0.00,22.8,21.8,00.0,31.9,24.5,07.8,0000.0,0004.79,0000.80,0000.53
2022-02-20 04:04:00,,0819.1,4.99,0.00,22.8,21.8,00.0,31.9,24.5,07.7,0000.0,0004.18,0000.81,0000.54
2022-02-20 04:05:00,,0819.1,5.02,0.00,22.7,21.7,00.0,31.9,24.4,07.8,0000.0,0004.16,0000.83,0000.54
2022-02-20 04:06:00,,0819.1,4.99,0.00,22.7,21.7,00.0,31.9,24.4,07.7,0000.0,0004.15,0000.83,0000.55
2022-02-20 04:07:00,,0819.0,4.99,0.00,22.7,21.7,00.0,31.8,24.4,07.5,0000.0,0004.09,0000.81,0000.55
2022-02-20 04:08:00,,0819.0,5.01,0.00,22.7,21.7,00.0,31.8,24.4,07.5,0000.0,0003.67,0000.78,0000.55
2022-02-20 04:09:00,,0819.1,4.99,0.00,22.7,21.6,00.0,31.8,24.5,07.4,0000.0,0002.74,0000.81,0000.56
2022-02-20 04:10:00,,0818.9,5.00,0.00,22.7,21.6,00.0,31.8,24.4,07.5,0000.0,0002.84,0000.82,0000.56
2022-02-20 04:11:00,,0818.9,5.00,0.00,22.7,21.6,00.0,31.8,24.4,07.2,0000.0,0002.60,0000.83,0000.56
2022-02-20 04:12:00,,0819.0,5.01,0.00,22.7,21.6,00.0,31.8,24.4,07.2,0000.0,0001.54,0000.84,0000.56
2022-02-20 04:13:00,,0819.0,4.99,0.00,22.6,21.5,00.0,31.7,24.4,07.4,0000.0,0001.51,0000.82,0000.56
2022-02-20 04:14:00,,0818.9,4.99,0.00,22.6,21.5,00.0,31.7,24.4,07.3,0000.0,0001.52,0000.82,0000.56
2022-02-20 04:15:00,,0819.0,5.02,0.00,22.6,21.5,00.0,31.7,24.3,07.2,0000.0,0001.56,0000.82,0000.56
2022-02-20 04:16:00,,0819.0,5.00,0.00,22.6,21.5,00.0,31.7,24.3,07.4,0000.0,0001.49,0000.79,0000.55
2022-02-20 04:17:00,,0819.0,4.99,0.00,22.6,21.5,00.0,31.7,24.3,07.4,0000.0,0001.45,0000.78,0000.54
2022-02-20 04:18:00,,0819.0,5.03,0.00,22.6,21.4,00.0,31.7,24.3,07.4,0000.0,0001.41,0000.76,0000.54
2022-02-20 04:19:00,,0818.9,4.99,0.00,22.6,21.4,00.0,31.6,24.3,07.4,0000.0,0001.57,0000.76,0000.53
2022-02-20 04:20:00,,0818.9,5.00,0.00,22.5,21.4,00.0,31.6,24.3,07.5,0000.0,0001.95,0000.75,0000.52
2022-02-20 04:21:00,,0819.0,5.02,0.00,22.5,21.4,00.0,31.6,24.2,07.4,0000.0,0001.91,0000.75,0000.51
2022-02-20 04:22:00,,0819.0,5.00,0.00,22.5,21.4,00.0,31.6,24.2,07.5,0000.0,0001.87,0000.75,0000.51
2022-02-20 04:23:00,,0819.0,4.99,0.00,22.5,21.4,00.0,31.6,24.2,07.4,0000.0,0001.78,0000.72,0000.51
2022-02-20 04:24:00,,0819.0,4.99,0.00,22.5,21.4,00.0,31.6,24.2,07.2,0000.0,0001.62,0000.70,0000.51
2022-02-20 04:25:00,,0818.9,5.02,0.00,22.4,21.3,00.0,31.6,24.1,07.3,0000.0,0001.63,0000.70,0000.50
2022-02-20 04:26:00,,0818.8,4.98,0.00,22.4,21.3,00.0,31.5,24.1,07.2,0000.0,0001.59,0000.70,0000.50
2022-02-20 04:27:00,,0818.6,5.01,0.00,22.4,21.3,00.0,31.5,24.1,07.1,0000.0,0001.65,0000.72,0000.50
2022-02-20 04:28:00,,0818.7,5.01,0.00,22.4,21.3,00.0,31.5,24.1,07.2,0000.0,0001.83,0000.76,0000.50
2022-02-20 04:29:00,,0818.6,5.00,0.00,22.4,21.2,00.0,31.5,24.1,07.2,0000.0,0001.98,0000.77,0000.50
2022-02-20 04:30:00,,0818.8,4.99,0.00,22.3,21.2,00.0,31.5,24.1,07.4,0000.0,0002.12,0000.78,0000.49
2022-02-20 04:31:00,,0818.6,4.99,0.00,22.3,21.2,00.0,31.5,24.0,07.7,0000.0,0001.73,0000.78,0000.50
2022-02-20 04:32:00,,0818.5,5.01,0.00,22.3,21.2,00.0,31.4,24.0,07.3,0000.0,0001.77,0000.76,0000.50
2022-02-20 04:33:00,,0818.5,4.97,0.00,22.3,21.1,00.0,31.4,24.0,07.2,0000.0,0001.81,0000.75,0000.50
2022-02-20 04:34:00,,0818.7,5.01,0.00,22.3,21.1,00.0,31.4,24.0,07.2,0000.0,0002.35,0000.74,0000.50
2022-02-20 04:35:00,,0818.5,4.99,0.00,22.3,21.1,00.0,31.4,24.0,07.3,0000.0,0002.71,0000.73,0000.50
2022-02-20 04:36:00,,0818.5,5.02,0.00,22.2,21.1,00.0,31.4,24.0,07.2,0000.0,0003.82,0000.72,0000.50
2022-02-20 04:37:00,,0818.4,4.99,0.00,22.2,21.0,00.0,31.3,23.9,07.1,0000.0,0003.94,0000.76,0000.50
2022-02-20 04:38:00,,0818.7,5.00,0.00,22.2,21.0,00.0,31.3,23.9,06.9,0000.0,0003.87,0000.74,0000.50
2022-02-20 04:39:00,,0818.8,4.99,0.00,22.2,21.0,00.0,31.3,23.9,07.1,0000.0,0003.75,0000.71,0000.50
2022-02-20 04:40:00,,0818.8,5.01,0.00,22.2,21.0,00.0,31.3,23.9,07.3,0000.0,0003.55,0000.66,0000.50
2022-02-20 04:41:00,,0818.8,4.98,0.00,22.1,21.0,00.0,31.3,23.9,07.4,0000.0,0003.35,0000.64,0000.50
2022-02-20 04:42:00,,0818.7,5.01,0.00,22.1,21.0,00.0,31.3,23.9,07.2,0000.0,0003.32,0000.63,0000.50
2022-02-20 04:43:00,,0818.7,4.98,0.00,22.1,21.0,00.0,31.2,23.9,07.1,0000.0,0003.13,0000.62,0000.50
2022-02-20 04:44:00,,0818.8,5.00,0.00,22.1,21.0,00.0,31.2,23.8,07.1,0000.0,0003.11,0000.63,0000.50
2022-02-20 04:45:00,,0818.8,5.01,0.00,22.1,21.0,00.0,31.2,23.8,07.1,0000.0,0002.61,0000.64,0000.50
2022-02-20 04:46:00,,0819.0,5.01,0.00,22.1,21.0,00.0,31.2,23.8,07.3,0000.0,0002.53,0000.66,0000.51
2022-02-20 04:47:00,,0818.9,4.99,0.00,22.0,21.0,00.0,31.2,23.8,07.6,0000.0,0001.09,0000.67,0000.51
2022-02-20 04:48:00,,0818.9,4.99,0.00,22.0,21.0,00.0,31.2,23.8,07.5,0000.0,0001.19,0000.68,0000.51
2022-02-20 04:49:00,,0818.9,5.02,0.00,22.0,21.0,00.0,31.1,23.7,07.2,0000.0,0001.17,0000.66,0000.51
2022-02-20 04:50:00,,0818.9,4.99,0.00,22.0,20.9,00.0,31.1,23.7,07.1,0000.0,0001.18,0000.67,0000.51
2022-02-20 04:51:00,,0819.0,5.00,0.00,22.0,20.9,00.0,31.1,23.7,07.2,0000.0,0001.50,0000.69,0000.51
2022-02-20 04:52:00,,0819.1,4.99,0.00,22.0,21.3,00.0,31.1,23.8,07.2,0000.0,0001.69,0000.71,0000.50
2022-02-20 04:53:00,,0819.1,5.01,0.00,22.2,22.1,00.0,31.2,24.1,07.1,0000.0,0001.68,0000.70,0000.50
2022-02-20 04:54:00,,0819.0,5.01,0.00,22.3,22.9,00.0,31.2,24.4,06.9,0000.0,0001.66,0000.69,0000.50
2022-02-20 04:55:00,,0819.0,4.99,0.00,22.4,22.9,00.0,31.3,24.5,06.7,0000.0,0001.67,0000.70,0000.50
2022-02-20 04:56:00,,0819.0,5.01,0.00,22.4,22.7,00.0,31.3,24.4,06.8,0000.0,0001.68,0000.71,0000.50
2022-02-20 04:57:00,,0818.9,4.99,0.00,22.4,22.4,00.0,31.3,24.3,06.6,0000.0,0001.72,0000.72,0000.50
2022-02-20 04:58:00,,0818.9,4.99,0.00,22.4,22.3,00.0,31.3,24.2,06.8,0000.0,0002.06,0000.72,0000.50
2022-02-20 04:59:00,,0818.8,4.99,0.00,22.4,22.1,00.0,31.3,24.2,06.8,0000.0,0001.87,0000.69,0000.50
